Location: Remedello Sotto
(45.2500°N, 10.3667°E)
Time: 19:48:53
(UTC+00:00)

Meteor 2-1 Rocket - Pass Details

Date: 03 February 2023
Orbit: 829 x 907 km, 81.3° (Epoch: 22 March)

Event Time Altitude Azimuth Distance (km) Brightness Sun altitude
Rises 16:48:06 0° 352° (N) 3,499 7.3 -4.1°
Reaches altitude 10° 16:50:39 10° 357° (N) 2,544 6.5 -4.5°
Maximum altitude 16:56:19 55° 75° (ENE) 1,036 4.4 -5.5°
Drops below altitude 10° 17:01:49 10° 153° (SSE) 2,475 6.5 -6.4°
Sets 17:04:16 0° 158° (SSE) 3,396 7.3 -6.8°
